Regional Weather Roundup
Issued by NWS

Home | Current Version | Previous Version | Text Only | Print | Product List | Glossary On
Versions: 1 2 3 4 5 6 7 8 9 10 11 12 13 14 15 16 17 18 19 20 21 22 23 24 25 26 27 28 29 30 31 32 33 34 35 36 37 38 39 40 41 42 43 44 45 46 47 48 49 50
000
ASUS44 KFWD 221815
RWRTX
NORTH TEXAS HOURLY WEATHER ROUNDUP
NATIONAL WEATHER SERVICE FORT WORTH TX
1200 PM CST FRI NOV 22 2019

NOTE: "FAIR" INDICATES FEW OR NO CLOUDS BELOW 12,000 FEET WITH NO
SIGNIFICANT WEATHER AND/OR OBSTRUCTIONS TO VISIBILITY.

TXZ118-119-221900-
DALLAS/FORT WORTH METROPLEX

CITY           SKY/WX    TMP DP  RH WIND       PRES   REMARKS
DFW AIRPORT    CLOUDY    47  41  80 NW17      30.10F
6HR MIN TEMP:  45; 6HR MAX TEMP:  47; 6HR PCP:  0.04;

DALLAS LOVE    CLOUDY    49  42  77 NW15G24   30.11F
6HR MIN TEMP:  46; 6HR MAX TEMP:  48; 6HR PCP:  0.39;

FTW MEACHAM    PTSUNNY   48  43  82 NW14      30.12F
6HR MIN TEMP:  44; 6HR MAX TEMP:  48;

DAL-EXECUTIVE  CLOUDY    47  41  80 NW16G26   30.10F
6HR MIN TEMP:  47; 6HR MAX TEMP:  49; 6HR PCP:  0.17;

FTW-ALLIANCE   CLOUDY    50  42  74 NW16      30.11F
6HR MIN TEMP:  45; 6HR MAX TEMP:  51; 6HR PCP:  0.26;

FTW-SPINKS     CLOUDY    46  43  87 NW13      30.14F
ARLINGTON      CLOUDY    48  42  80 NW13      30.12F
6HR MIN TEMP:  46; 6HR MAX TEMP:  49; 6HR PCP:  0.19;

GRAND PRAIRIE  CLOUDY    46  43  87 W9        30.13F
ADDISON        CLOUDY    46  41  81 NW14      30.12F
MESQUITE       CLOUDY    46  43  87 NW13      30.11F
LANCASTER      CLOUDY    46  43  87 NW15      30.12F
6HR MIN TEMP:  46; 6HR MAX TEMP:  49; 6HR PCP:  0.15;

$$

TXZ091>094-102>105-117-120-121-131>134-221900-
NORTH CENTRAL TEXAS

CITY           SKY/WX    TMP DP  RH WIND       PRES   REMARKS
SHRMAN/DENISON   N/A     45  41  87 NW12      30.13F WCI  39
GAINESVILLE    CLOUDY    45  40  83 NW13G18   30.15S WCI  39
6HR MIN TEMP:  41; 6HR MAX TEMP:  45;

BOWIE          CLOUDY    46  42  84 N13       30.15F
6HR MIN TEMP:  44; 6HR MAX TEMP:  46;

BRIDGEPORT     CLOUDY    47  40  78 NW12G17   30.17F
6HR MIN TEMP:  43; 6HR MAX TEMP:  47; 6HR PCP:  0.02;

DECATUR        CLOUDY    45  40  83 NW9G16    30.13F
6HR MIN TEMP:  42; 6HR MAX TEMP:  46; 6HR PCP:  0.03;

DENTON         CLOUDY    47  41  80 NW14      30.13F
6HR MIN TEMP:  44; 6HR MAX TEMP:  48; 6HR PCP:  0.07;

MCKINNEY       CLOUDY    46  42  86 N15       30.10F WCI  40
6HR MIN TEMP:  45; 6HR MAX TEMP:  47; 6HR PCP:  0.39;

BONHAM         CLOUDY    44  41  89 NW14G23   30.11F WCI  37
6HR MIN TEMP:  43; 6HR MAX TEMP:  45; 6HR PCP:  0.20;

GREENVILLE     CLOUDY    48  45  87 NW14      30.10S
ROCKWALL       CLOUDY    45  45  99 N14G21    30.10F WCI  39
6HR MIN TEMP:  45; 6HR MAX TEMP:  47; 6HR PCP:  0.56;

TERRELL        CLOUDY    47  43  86 N12G22    30.09F
6HR MIN TEMP:  47; 6HR MAX TEMP:  50; 6HR PCP:  0.10;

WAXAHACHIE     CLOUDY    46  44  94 NW13      30.12F
6HR MIN TEMP:  45; 6HR MAX TEMP:  48; 6HR PCP:  0.15;

CLEBURNE       CLOUDY    46  43  87 NW15      30.14F
GRANBURY       CLOUDY    49  42  77 NW12      30.15F
$$

TXZ083>090-098>101-113>116-127>130-139>142-154-155-221900-
WESTERN NORTH TEXAS

CITY           SKY/WX    TMP DP  RH WIND       PRES   REMARKS
WICHITA FALLS  CLOUDY    42  37  82 NW14      30.18F WCI  35
6HR MIN TEMP:  40; 6HR MAX TEMP:  43; 6HR PCP: TRACE;

WF-KICKAPOO    CLOUDY    41  36  81 N9        30.20F WCI  36
6HR MIN TEMP:  41; 6HR MAX TEMP:  42;

VERNON         CLOUDY    43  36  77 NW12      30.20F WCI  37
6HR MIN TEMP:  39; 6HR MAX TEMP:  43;

ABILENE        CLOUDY    44  38  79 NW13      30.18F WCI  38
6HR MIN TEMP:  41; 6HR MAX TEMP:  44;

ABILENE-DYESS  CLOUDY    43  35  72 NW13      30.18F WCI  37
6HR MIN TEMP:  41; 6HR MAX TEMP:  44;

BRECKENRIDGE   CLOUDY    46  39  76 MISG      30.17F
6HR MIN TEMP:  42; 6HR MAX TEMP:  46;

CISCO          CLOUDY    43  39  87 N14       30.17F WCI  36
EASTLAND       CLOUDY    42  39  89 N8        30.17F WCI  37
6HR MIN TEMP:  39; 6HR MAX TEMP:  42;

RANGER         CLOUDY    43  41  95 N8        30.16F WCI  38
6HR MIN TEMP:  41; 6HR MAX TEMP:  43; 6HR PCP:  0.02;

MINERAL WELLS  CLOUDY    48  41  76 NW14      30.14F
6HR MIN TEMP:  42; 6HR MAX TEMP:  48; 6HR PCP:  0.15;

STEPHENVILLE   CLOUDY    46  42  85 NW14G21   30.16F WCI  39
6HR MIN TEMP:  43; 6HR MAX TEMP:  46; 6HR PCP:  0.01;

COMANCHE       CLOUDY    46  43  90 NW14      30.16F WCI  39
6HR MIN TEMP:  43; 6HR MAX TEMP:  46; 6HR PCP:  0.03;

BROWNWOOD      CLOUDY    46  39  76 NW16      30.17F WCI  40
COLEMAN        CLOUDY    46  40  78 N13       30.18F WCI  40
6HR MIN TEMP:  42; 6HR MAX TEMP:  46;

BRADY          CLOUDY    45  41  87 N16       30.15F WCI  37
$$

TXZ143>147-156>162-174-175-221900-
CENTRAL TEXAS

CITY           SKY/WX    TMP DP  RH WIND       PRES   REMARKS
WACO           CLOUDY    49  44  83 NW15G25   30.12S
6HR MIN TEMP:  49; 6HR MAX TEMP:  51; 6HR PCP:  0.06;

WACO-TSTC      LGT RAIN  50  46  87 NW10      30.13R
WACO-MCGREGOR  CLOUDY    49  45  86 NW16G22   30.12F
6HR MIN TEMP:  49; 6HR MAX TEMP:  51; 6HR PCP: TRACE;

HILLSBORO      CLOUDY    47  47  98 NW18      30.11F
6HR MIN TEMP:  47; 6HR MAX TEMP:  50; 6HR PCP:  0.10;

MEXIA          CLOUDY    51  47  87 NW13G21   30.09R
6HR MIN TEMP:  50; 6HR MAX TEMP:  53;

CAMERON        LGT RAIN  52  49  89 N10       30.09F
6HR MIN TEMP:  51; 6HR MAX TEMP:  55;

TEMPLE         CLOUDY    51  46  83 NW21      30.11F
6HR MIN TEMP:  49; 6HR MAX TEMP:  52; 6HR PCP: TRACE;

KILLEEN        CLOUDY    51  44  79 N17       30.10S
6HR MIN TEMP:  47; 6HR MAX TEMP:  51; 6HR PCP: TRACE;

KILLEEN-SKYLRK CLOUDY    52  46  80 N14G20    30.11F
6HR MIN TEMP:  48; 6HR MAX TEMP:  52;

FORT HOOD      CLOUDY    51  45  80 NW14      30.11S
6HR MIN TEMP:  48; 6HR MAX TEMP:  52; 6HR PCP:  0.01;

GATESVILLE     CLOUDY    48  43  81 NW13G21   30.14S
HAMILTON       CLOUDY    47  46  95 N20       30.14F WCI  40
6HR MIN TEMP:  46; 6HR MAX TEMP:  47; 6HR PCP:  0.07;

LAMPASAS       CLOUDY    49  43  79 N12G18    30.11F
6HR MIN TEMP:  46; 6HR MAX TEMP:  50;

$$

TXZ095>097-106>112-122>126-135>138-148>153-164>167-221900-
EAST TEXAS

CITY           SKY/WX    TMP DP  RH WIND       PRES   REMARKS
PARIS          LGT RAIN  45  45 100 NW17      30.06F FOG     WCI  37
6HR MIN TEMP:  45; 6HR MAX TEMP:  48; 6HR PCP:  0.52;

SULPHUR SPRNGS CLOUDY    47  46  95 NW17      30.10S
6HR MIN TEMP:  47; 6HR MAX TEMP:  50; 6HR PCP:  0.35;

MOUNT PLEASANT CLOUDY    52  49  89 NW14      30.06F
6HR MIN TEMP:  51; 6HR MAX TEMP:  56; 6HR PCP:  0.10;

GILMER         CLOUDY    52  48  85 NW8       30.04R
6HR MIN TEMP:  51; 6HR MAX TEMP:  60;

MINEOLA        CLOUDY    48  46  93 NW15      30.07S
TYLER          CLOUDY    53  47  79 NW12      30.05S
6HR MIN TEMP:  52; 6HR MAX TEMP:  65;

LONGVIEW       CLOUDY    58  51  78 W9        29.99F
6HR MIN TEMP:  55; 6HR MAX TEMP:  67; 6HR PCP: TRACE;

MARSHALL       CLOUDY    57  53  84 NW7       30.02S
6HR MIN TEMP:  55; 6HR MAX TEMP:  67;

ATHENS         LGT RAIN  50  46  87 NW9       30.06F
PALESTINE      CLOUDY    53  49  86 NW10      30.07F
JACKSONVILLE   CLOUDY    54  51  88 NW9       30.03F
HENDERSON      CLOUDY    57  51  80 W7        30.02F
6HR MIN TEMP:  55; 6HR MAX TEMP:  68;

CENTER         CLOUDY    64  62  91 NW13      30.00
6HR MIN TEMP:  64; 6HR MAX TEMP:  72; 6HR PCP:  0.13;

NACOGDOCHES    CLOUDY    59  58  96 NW13      30.01F
6HR MIN TEMP:  59; 6HR MAX TEMP:  69; 6HR PCP:  0.03;

LUFKIN         LGT RAIN  62  59  90 NW9       30.00R
6HR MIN TEMP:  62; 6HR MAX TEMP:  72; 6HR PCP:  0.01;

$$

SUPPLEMENTAL OBSERVATIONS (NWS FORT WORTH AREA)

CITY           SKY/WX    TMP DP  RH WIND       PRES   REMARKS
CADDO GRASSLND   N/A     43  39  87 N7          N/A  WCI  39
LBJ GRASSLAND    N/A     46  39  76 NW9         N/A
POSSUM KINGDOM   N/A     45  39  81 NW9         N/A  WCI  40
GRANBURY         N/A     48  41  76 NW15G22     N/A
COMANCHE         N/A     46  41  81 NW14G22     N/A
MCGREGOR         N/A     48  43  81 N12         N/A
TEMPLE           N/A     52  46  82 NW14        N/A
LAKE LIMESTONE   N/A     52  48  87 NW8         N/A


USA.gov is the U.S. government's official web portal to all federal, state and local government web resources and services.